DAL2613 KPHX-KSAN

Flight info

Callsign DAL2613
Flight time 0h 56m
Altitude 30000
Route FYRBD1 MOHAK J2 HOGGZ LUCKI1
Aircraft A320/M-SDE3FGHIRWY/LB1

Departure

Time 2026-05-05 00:49
Airport Phoenix Sky Harbor International Airport (KPHX)

Arrival

Time 2026-05-05 01:46
Airport San Diego International Airport (KSAN)
Time Latitude Longitude Altitude Speed Heading
2026-05-05 00:18 33.43443 -111.99973 1150 ft 0 kts 90°
2026-05-05 00:39 33.43441 -112.00001 1149 ft 4 kts 71°
2026-05-05 00:39 33.43427 -112.00028 1149 ft 4 kts 39°
2026-05-05 00:39 33.43404 -112.00043 1149 ft 4 kts 11°
2026-05-05 00:39 33.43378 -112.00044 1149 ft 4 kts 340°
2026-05-05 00:40 33.43363 -112.00037 1149 ft 4 kts 239°
2026-05-05 00:40 33.43351 -112.00039 1149 ft 1 kts 180°
2026-05-05 00:40 33.43336 -112.00046 1149 ft 4 kts 211°
2026-05-05 00:40 33.43320 -112.00071 1149 ft 4 kts 241°
2026-05-05 00:41 33.43313 -112.00101 1149 ft 4 kts 261°
2026-05-05 00:41 33.43313 -112.00124 1149 ft 0 kts 90°
2026-05-05 00:44 33.43313 -112.00122 1149 ft 1 kts 90°
2026-05-05 00:45 33.43313 -112.00099 1149 ft 5 kts 91°
2026-05-05 00:45 33.43288 -112.00065 1149 ft 8 kts 162°
2026-05-05 00:45 33.43228 -112.00041 1149 ft 10 kts 130°
2026-05-05 00:45 33.43218 -111.99955 1149 ft 10 kts 91°
2026-05-05 00:46 33.43217 -111.99866 1149 ft 11 kts 90°
2026-05-05 00:46 33.43218 -111.99764 1149 ft 13 kts 89°
2026-05-05 00:46 33.43219 -111.99657 1149 ft 10 kts 89°
2026-05-05 00:46 33.43219 -111.99565 1149 ft 12 kts 90°
2026-05-05 00:47 33.43219 -111.99484 1149 ft 10 kts 91°
2026-05-05 00:47 33.43218 -111.99398 1149 ft 5 kts 91°
2026-05-05 00:47 33.43208 -111.99363 1149 ft 5 kts 133°
2026-05-05 00:47 33.43177 -111.99347 1149 ft 5 kts 174°
2026-05-05 00:48 33.43139 -111.99347 1149 ft 6 kts 186°
2026-05-05 00:48 33.43109 -111.99373 1149 ft 6 kts 247°
2026-05-05 00:48 33.43104 -111.99424 1149 ft 7 kts 268°
2026-05-05 00:48 33.43102 -111.99767 1150 ft 82 kts 271°
2026-05-05 00:49 33.43106 -112.00748 1150 ft 151 kts 270°
2026-05-05 00:49 33.43104 -112.02104 1648 ft 163 kts 270°
2026-05-05 00:49 33.43103 -112.03442 2513 ft 160 kts 270°
2026-05-05 00:49 33.43014 -112.04815 3154 ft 175 kts 257°
2026-05-05 00:50 33.42636 -112.06231 3532 ft 187 kts 250°
2026-05-05 00:50 33.42197 -112.07779 3799 ft 207 kts 249°
2026-05-05 00:50 33.41723 -112.09506 4152 ft 227 kts 250°
2026-05-05 00:50 33.41222 -112.11369 4629 ft 243 kts 250°
2026-05-05 00:51 33.40698 -112.13360 5184 ft 256 kts 251°
2026-05-05 00:51 33.40115 -112.15394 5924 ft 260 kts 243°
2026-05-05 00:51 33.39049 -112.17127 6712 ft 262 kts 219°
2026-05-05 00:51 33.37413 -112.18079 7476 ft 266 kts 193°
2026-05-05 00:52 33.35548 -112.18023 8215 ft 274 kts 169°
2026-05-05 00:52 33.33705 -112.17342 8945 ft 280 kts 164°
2026-05-05 00:52 33.31852 -112.16561 9678 ft 283 kts 165°
2026-05-05 00:52 33.29975 -112.15833 10377 ft 286 kts 169°
2026-05-05 00:53 33.27961 -112.15658 10725 ft 298 kts 190°
2026-05-05 00:53 33.25983 -112.16421 11023 ft 310 kts 210°
2026-05-05 00:53 33.24290 -112.18080 11381 ft 323 kts 229°
2026-05-05 00:53 33.22943 -112.20256 11974 ft 328 kts 236°
2026-05-05 00:54 33.21666 -112.22537 12687 ft 330 kts 235°
2026-05-05 00:54 33.20357 -112.24801 13365 ft 332 kts 235°
2026-05-05 00:54 33.19031 -112.27061 14030 ft 334 kts 235°
2026-05-05 00:54 33.17695 -112.29347 14667 ft 336 kts 236°
2026-05-05 00:55 33.16362 -112.31648 15293 ft 338 kts 236°
2026-05-05 00:55 33.15026 -112.33970 15909 ft 340 kts 237°
2026-05-05 00:55 33.13687 -112.36294 16522 ft 341 kts 237°
2026-05-05 00:55 33.12340 -112.38626 17109 ft 342 kts 237°
2026-05-05 00:56 33.10983 -112.40969 17678 ft 344 kts 237°
2026-05-05 00:56 33.09623 -112.43314 18238 ft 345 kts 237°
2026-05-05 00:56 33.08253 -112.45678 18773 ft 347 kts 237°
2026-05-05 00:56 33.06878 -112.48051 19292 ft 348 kts 237°
2026-05-05 00:57 33.05496 -112.50431 19787 ft 350 kts 236°
2026-05-05 00:57 33.04108 -112.52820 20275 ft 352 kts 236°
2026-05-05 00:57 33.02710 -112.55227 20755 ft 353 kts 236°
2026-05-05 00:57 33.01327 -112.57604 21199 ft 355 kts 236°
2026-05-05 00:58 32.99917 -112.60032 21639 ft 357 kts 235°
2026-05-05 00:58 32.98500 -112.62466 22064 ft 358 kts 235°
2026-05-05 00:58 32.97081 -112.64914 22486 ft 360 kts 236°
2026-05-05 00:58 32.95870 -112.67532 22888 ft 362 kts 245°
2026-05-05 00:59 32.95123 -112.70410 23269 ft 368 kts 255°
2026-05-05 00:59 32.94701 -112.73435 23643 ft 371 kts 257°
2026-05-05 00:59 32.94358 -112.76482 23997 ft 373 kts 258°
2026-05-05 00:59 32.94010 -112.79553 24345 ft 374 kts 257°
2026-05-05 01:00 32.93624 -112.82629 24701 ft 375 kts 256°
2026-05-05 01:00 32.93204 -112.85694 25064 ft 376 kts 256°
2026-05-05 01:00 32.92771 -112.88758 25498 ft 374 kts 256°
2026-05-05 01:00 32.92348 -112.91792 26018 ft 371 kts 256°
2026-05-05 01:01 32.91937 -112.94811 26533 ft 367 kts 256°
2026-05-05 01:01 32.91534 -112.97803 27011 ft 365 kts 256°
2026-05-05 01:01 32.91134 -113.00766 27495 ft 361 kts 256°
2026-05-05 01:01 32.90732 -113.03710 27953 ft 359 kts 255°
2026-05-05 01:02 32.90331 -113.06628 28410 ft 356 kts 255°
2026-05-05 01:02 32.89937 -113.09499 28856 ft 353 kts 255°
2026-05-05 01:02 32.89541 -113.12376 29301 ft 351 kts 255°
2026-05-05 01:02 32.89147 -113.15232 29731 ft 348 kts 255°
2026-05-05 01:03 32.88756 -113.18074 29932 ft 350 kts 255°
2026-05-05 01:03 32.87953 -113.23859 29928 ft 357 kts 255°
2026-05-05 01:04 32.87141 -113.29716 29925 ft 360 kts 255°
2026-05-05 01:04 32.85918 -113.38506 29924 ft 361 kts 255°
2026-05-05 01:05 32.85094 -113.44402 29924 ft 361 kts 255°
2026-05-05 01:05 32.84266 -113.50292 29923 ft 361 kts 255°
2026-05-05 01:06 32.83442 -113.56137 29922 ft 361 kts 255°
2026-05-05 01:06 32.82610 -113.62031 29896 ft 361 kts 254°
2026-05-05 01:07 32.81773 -113.67922 29884 ft 361 kts 254°
2026-05-05 01:07 32.80934 -113.73817 29857 ft 362 kts 255°
2026-05-05 01:08 32.80090 -113.79727 29856 ft 363 kts 254°
2026-05-05 01:08 32.79240 -113.85648 29855 ft 364 kts 254°
2026-05-05 01:09 32.78388 -113.91582 29901 ft 363 kts 254°
2026-05-05 01:09 32.77600 -113.97521 29943 ft 366 kts 258°
2026-05-05 01:10 32.77464 -114.03615 29941 ft 370 kts 262°
2026-05-05 01:10 32.77585 -114.09698 29940 ft 371 kts 264°
2026-05-05 01:11 32.77844 -114.15804 29938 ft 369 kts 264°
2026-05-05 01:11 32.78085 -114.21895 29914 ft 368 kts 264°
2026-05-05 01:12 32.78322 -114.27957 29870 ft 367 kts 264°
2026-05-05 01:12 32.78558 -114.34016 29850 ft 367 kts 264°
2026-05-05 01:13 32.79110 -114.40101 29850 ft 380 kts 274°
2026-05-05 01:13 32.80740 -114.46165 29848 ft 387 kts 278°
2026-05-05 01:14 32.82509 -114.52202 29862 ft 385 kts 278°
2026-05-05 01:14 32.84156 -114.58243 29871 ft 382 kts 277°
2026-05-05 01:15 32.85776 -114.64243 29888 ft 380 kts 277°
2026-05-05 01:15 32.87398 -114.70216 29863 ft 375 kts 275°
2026-05-05 01:16 32.87897 -114.73215 29862 ft 362 kts 266°
2026-05-05 01:16 32.87965 -114.76179 29888 ft 358 kts 260°
2026-05-05 01:16 32.87741 -114.82108 29905 ft 363 kts 259°
2026-05-05 01:17 32.87570 -114.87990 29655 ft 346 kts 260°
2026-05-05 01:17 32.87527 -114.90819 29401 ft 335 kts 260°
2026-05-05 01:17 32.87482 -114.93546 29148 ft 325 kts 259°
2026-05-05 01:18 32.87423 -114.96217 28905 ft 323 kts 259°
2026-05-05 01:18 32.87350 -114.98891 28658 ft 323 kts 259°
2026-05-05 01:18 32.87280 -115.01563 28409 ft 322 kts 259°
2026-05-05 01:18 32.87216 -115.04229 28161 ft 322 kts 259°
2026-05-05 01:19 32.87155 -115.06883 27913 ft 320 kts 259°
2026-05-05 01:19 32.87115 -115.08639 27748 ft 319 kts 259°
2026-05-05 01:19 32.87032 -115.12130 27420 ft 318 kts 259°
2026-05-05 01:19 32.86989 -115.13907 27253 ft 318 kts 259°
2026-05-05 01:20 32.86924 -115.16531 27005 ft 317 kts 259°
2026-05-05 01:20 32.86839 -115.19991 26681 ft 316 kts 259°
2026-05-05 01:20 32.86796 -115.21757 26512 ft 315 kts 259°
2026-05-05 01:20 32.86731 -115.24332 26264 ft 314 kts 260°
2026-05-05 01:21 32.86664 -115.26930 26023 ft 314 kts 259°
2026-05-05 01:21 32.86598 -115.29518 25780 ft 313 kts 260°
2026-05-05 01:21 32.86533 -115.32106 25531 ft 313 kts 260°
2026-05-05 01:21 32.86405 -115.34674 25273 ft 307 kts 255°
2026-05-05 01:22 32.86100 -115.37176 25034 ft 305 kts 253°
2026-05-05 01:22 32.85741 -115.39659 24756 ft 304 kts 253°
2026-05-05 01:22 32.85370 -115.42127 24508 ft 303 kts 253°
2026-05-05 01:22 32.85011 -115.44594 24265 ft 303 kts 253°
2026-05-05 01:23 32.84662 -115.47064 24017 ft 302 kts 253°
2026-05-05 01:23 32.84303 -115.49531 23768 ft 302 kts 253°
2026-05-05 01:23 32.83914 -115.51972 23518 ft 300 kts 252°
2026-05-05 01:23 32.83515 -115.54408 23272 ft 299 kts 252°
2026-05-05 01:24 32.83116 -115.56829 23024 ft 298 kts 253°
2026-05-05 01:24 32.82723 -115.59217 22773 ft 297 kts 253°
2026-05-05 01:24 32.82330 -115.61626 22524 ft 296 kts 253°
2026-05-05 01:24 32.81937 -115.64030 22274 ft 295 kts 253°
2026-05-05 01:25 32.81543 -115.66427 22018 ft 295 kts 253°
2026-05-05 01:25 32.81149 -115.68816 21772 ft 294 kts 254°
2026-05-05 01:25 32.80758 -115.71197 21526 ft 293 kts 254°
2026-05-05 01:25 32.80367 -115.73568 21291 ft 292 kts 254°
2026-05-05 01:26 32.79979 -115.75935 21046 ft 291 kts 255°
2026-05-05 01:26 32.79592 -115.78290 20796 ft 290 kts 255°
2026-05-05 01:26 32.79203 -115.80645 20547 ft 289 kts 255°
2026-05-05 01:26 32.78815 -115.82982 20299 ft 288 kts 255°
2026-05-05 01:27 32.78469 -115.85334 20048 ft 289 kts 259°
2026-05-05 01:27 32.78259 -115.87714 19800 ft 289 kts 261°
2026-05-05 01:27 32.78093 -115.90091 19497 ft 288 kts 262°
2026-05-05 01:27 32.77936 -115.92449 19146 ft 286 kts 262°
2026-05-05 01:28 32.77771 -115.94797 18795 ft 284 kts 262°
2026-05-05 01:28 32.77598 -115.97139 18462 ft 282 kts 262°
2026-05-05 01:28 32.77425 -115.99426 18135 ft 281 kts 262°
2026-05-05 01:28 32.77248 -116.01760 17803 ft 279 kts 263°
2026-05-05 01:29 32.77074 -116.04056 17468 ft 279 kts 263°
2026-05-05 01:29 32.76901 -116.06356 17101 ft 279 kts 263°
2026-05-05 01:29 32.76727 -116.08654 16737 ft 280 kts 263°
2026-05-05 01:29 32.76555 -116.10923 16412 ft 279 kts 263°
2026-05-05 01:30 32.76380 -116.13216 16089 ft 278 kts 263°
2026-05-05 01:30 32.76206 -116.15497 15770 ft 277 kts 263°
2026-05-05 01:30 32.76032 -116.17773 15453 ft 277 kts 263°
2026-05-05 01:30 32.75858 -116.20049 15135 ft 276 kts 263°
2026-05-05 01:31 32.75683 -116.22328 14792 ft 277 kts 263°
2026-05-05 01:31 32.75507 -116.24610 14441 ft 278 kts 263°
2026-05-05 01:31 32.75330 -116.26896 14096 ft 278 kts 263°
2026-05-05 01:31 32.75153 -116.29193 13758 ft 278 kts 263°
2026-05-05 01:32 32.74976 -116.31481 13415 ft 279 kts 263°
2026-05-05 01:32 32.74798 -116.33777 13074 ft 279 kts 263°
2026-05-05 01:32 32.74621 -116.36063 12756 ft 278 kts 263°
2026-05-05 01:32 32.74443 -116.38350 12437 ft 277 kts 263°
2026-05-05 01:33 32.74266 -116.40623 12085 ft 277 kts 263°
2026-05-05 01:33 32.74089 -116.42879 11719 ft 278 kts 263°
2026-05-05 01:33 32.73909 -116.45166 11345 ft 278 kts 263°
2026-05-05 01:33 32.73729 -116.47456 10972 ft 279 kts 263°
2026-05-05 01:34 32.73548 -116.49748 10601 ft 279 kts 263°
2026-05-05 01:34 32.73345 -116.52037 10241 ft 278 kts 262°
2026-05-05 01:34 32.73126 -116.54322 9883 ft 278 kts 262°
2026-05-05 01:34 32.72903 -116.56577 9607 ft 272 kts 262°
2026-05-05 01:35 32.72685 -116.58797 9201 ft 271 kts 262°
2026-05-05 01:35 32.72469 -116.61015 8789 ft 269 kts 263°
2026-05-05 01:35 32.72256 -116.63210 8408 ft 267 kts 263°
2026-05-05 01:35 32.72046 -116.65392 8043 ft 265 kts 263°
2026-05-05 01:36 32.71860 -116.67565 7621 ft 265 kts 264°
2026-05-05 01:36 32.71690 -116.69738 7180 ft 264 kts 264°
2026-05-05 01:36 32.71528 -116.71889 6872 ft 258 kts 264°
2026-05-05 01:36 32.71369 -116.73966 6688 ft 247 kts 264°
2026-05-05 01:37 32.71208 -116.75947 6553 ft 234 kts 264°
2026-05-05 01:37 32.71060 -116.77819 6464 ft 220 kts 264°
2026-05-05 01:37 32.70923 -116.79597 6245 ft 214 kts 264°
2026-05-05 01:37 32.70781 -116.81316 6091 ft 203 kts 261°
2026-05-05 01:38 32.70470 -116.82894 5882 ft 197 kts 251°
2026-05-05 01:38 32.69978 -116.84398 5603 ft 195 kts 248°
2026-05-05 01:38 32.69467 -116.85888 5327 ft 194 kts 249°
2026-05-05 01:38 32.68991 -116.87384 5063 ft 193 kts 250°
2026-05-05 01:39 32.68548 -116.88886 4816 ft 193 kts 251°
2026-05-05 01:39 32.68116 -116.90382 4654 ft 187 kts 251°
2026-05-05 01:39 32.67697 -116.91791 4530 ft 175 kts 250°
2026-05-05 01:39 32.67335 -116.93135 4432 ft 162 kts 257°
2026-05-05 01:40 32.67308 -116.94397 4322 ft 151 kts 279°
2026-05-05 01:40 32.67608 -116.95557 4119 ft 145 kts 285°
2026-05-05 01:40 32.67926 -116.96691 3815 ft 145 kts 284°
2026-05-05 01:40 32.68216 -116.97837 3524 ft 145 kts 282°
2026-05-05 01:41 32.68493 -116.98992 3299 ft 145 kts 283°
2026-05-05 01:41 32.68775 -117.00146 3091 ft 145 kts 283°
2026-05-05 01:41 32.69056 -117.01293 2918 ft 145 kts 283°
2026-05-05 01:41 32.69337 -117.02444 2805 ft 145 kts 282°
2026-05-05 01:42 32.69616 -117.03589 2679 ft 145 kts 283°
2026-05-05 01:42 32.69893 -117.04741 2554 ft 145 kts 282°
2026-05-05 01:42 32.70173 -117.05888 2424 ft 144 kts 283°
2026-05-05 01:42 32.70456 -117.07033 2285 ft 144 kts 283°
2026-05-05 01:43 32.70736 -117.08177 2075 ft 144 kts 283°
2026-05-05 01:43 32.71011 -117.09314 1855 ft 143 kts 283°
2026-05-05 01:43 32.71287 -117.10451 1614 ft 143 kts 283°
2026-05-05 01:43 32.71564 -117.11582 1402 ft 139 kts 284°
2026-05-05 01:44 32.71831 -117.12678 1168 ft 138 kts 284°
2026-05-05 01:44 32.72095 -117.13769 940 ft 137 kts 284°
2026-05-05 01:44 32.72355 -117.14839 718 ft 137 kts 284°
2026-05-05 01:44 32.72617 -117.15922 495 ft 136 kts 284°
2026-05-05 01:45 32.72879 -117.17002 280 ft 136 kts 284°
2026-05-05 01:45 32.73140 -117.18078 72 ft 135 kts 284°
2026-05-05 01:45 32.73375 -117.19076 31 ft 111 kts 285°
2026-05-05 01:45 32.73561 -117.19847 31 ft 77 kts 288°
2026-05-05 01:46 32.73660 -117.20257 31 ft 26 kts 284°
2026-05-05 01:46 32.73676 -117.20373 31 ft 11 kts 252°
2026-05-05 01:46 32.73625 -117.20412 31 ft 7 kts 172°
2026-05-05 01:46 32.73596 -117.20370 31 ft 7 kts 110°
2026-05-05 01:47 32.73582 -117.20317 31 ft 7 kts 107°
2026-05-05 01:47 32.73574 -117.20288 31 ft 4 kts 107°
2026-05-05 01:47 32.73570 -117.20272 31 ft 2 kts 107°
2026-05-05 01:47 32.73567 -117.20260 31 ft 2 kts 107°
2026-05-05 01:48 32.73563 -117.20246 31 ft 2 kts 108°
2026-05-05 01:48 32.73558 -117.20239 31 ft 1 kts 160°
2026-05-05 01:48 32.73553 -117.20239 31 ft 1 kts 188°
2026-05-05 01:48 32.73548 -117.20240 31 ft 1 kts 189°
2026-05-05 01:49 32.73530 -117.20250 31 ft 6 kts 216°
2026-05-05 01:49 32.73503 -117.20286 31 ft 4 kts 232°
2026-05-05 01:49 32.73486 -117.20311 31 ft 4 kts 233°
2026-05-05 01:49 32.73470 -117.20339 31 ft 2 kts 234°
2026-05-05 01:50 32.73465 -117.20347 31 ft 0 kts 234°
2026-05-05 01:50 32.73463 -117.20350 31 ft 0 kts 234°
2026-05-05 01:50 32.73461 -117.20354 31 ft 1 kts 233°
2026-05-05 01:50 32.73457 -117.20359 31 ft 1 kts 231°
2026-05-05 01:51 32.73455 -117.20362 31 ft 0 kts 231°
2026-05-05 01:51 32.73454 -117.20363 31 ft 0 kts 231°
2026-05-05 01:51 32.73453 -117.20365 31 ft 0 kts 232°
2026-05-05 01:52 32.73452 -117.20367 31 ft 0 kts 233°